This demonstration page uses our WeatherBlox Daily Observations layout. Learn more.

Left ArrowRight Arrow

36.19886, -115.1175

Hourly Observations for September 26, 2021

Temp ( °F °C ) Dew Point ( °F °C ) Humidity (%) Winds ( mph kmh ) Pressure ( in mb ) Visibility ( mi km ) Precip ( " mm )
12:53 am 00:53 Clear 78 25.6 51 10.6 39 39 N N/A 29.89 1012 10 16 N/A
1:53 am 01:53 Clear 77 25 51 10.6 40 40 WNW 6 9 29.90 1013 10 16 N/A
2:53 am 02:53 Clear 76 24.4 51 10.6 42 42 NNW 6 9 29.89 1012 10 16 N/A
3:53 am 03:53 Clear 75 23.9 51 10.6 43 43 NW 5 7 29.89 1012 10 16 N/A
4:53 am 04:53 Clear 74 23.3 51 10.6 45 45 N 8 13 29.90 1013 10 16 N/A
5:53 am 05:53 Clear 73 22.8 49 9.4 43 43 NNW 8 13 29.92 1013 10 16 N/A
6:53 am 06:53 Sunny 72 22.2 49 9.4 44 44 NNW 7 11 29.93 1014 10 16 N/A
7:53 am 07:53 Sunny 76 24.4 51 10.6 42 42 N 7 11 29.94 1014 10 16 N/A
8:53 am 08:53 Sunny 80 26.7 53 11.7 39 39 N 5 7 29.95 1014 10 16 N/A
9:53 am 09:53 Sunny 84 28.9 52 11.1 33 33 N N/A 29.94 1014 10 16 N/A
10:53 am 10:53 Sunny 86 30 52 11.1 31 31 ENE 7 11 29.93 1014 10 16 N/A
11:53 am 11:53 Sunny 88 31.1 50 10 27 27 N N/A 29.92 1013 10 16 N/A
12:53 pm 12:53 Sunny 89 31.7 50 10 26 26 N N/A 29.90 1012 10 16 N/A
1:53 pm 13:53 Sunny 91 32.8 49 9.4 24 24 VRB 5 7 29.86 1011 10 16 N/A
2:53 pm 14:53 Sunny 94 34.4 48 8.9 21 21 VRB 3 6 29.83 1010 10 16 N/A
3:53 pm 15:53 Sunny 94 34.4 48 8.9 21 21 SW 7 11 29.82 1010 10 16 N/A
4:53 pm 16:53 Sunny 94 34.4 49 9.4 21 21 SE 8 13 29.80 1009 10 16 N/A
5:53 pm 17:53 Sunny 93 33.9 49 9.4 22 22 ESE 12 19 29.80 1009 10 16 N/A
6:53 pm 18:53 Clear 90 32.2 51 10.6 26 26 E 10 17 29.82 1010 10 16 N/A
7:53 pm 19:53 Clear 86 30 54 12.2 33 33 E 10 17 29.83 1010 10 16 N/A
8:53 pm 20:53 Clear 85 29.4 54 12.2 35 35 ENE 9 15 29.83 1010 10 16 N/A
9:53 pm 21:53 Clear 84 28.9 54 12.2 36 36 NW 8 13 29.84 1010 10 16 N/A
10:53 pm 22:53 Clear 81 27.2 55 12.8 41 41 NNW 6 9 29.85 1011 10 16 N/A
11:53 pm 23:53 Clear 80 26.7 56 13.3 44 44 NNE 8 13 29.86 1011 10 16 N/A

Powered by AerisWeather